Time,TemperatureF,DewpointF,PressureIn,WindDirection,WindDirectionDegrees,WindSpeedMPH,WindSpeedGustMPH,Humidity,HourlyPrecipIn,Conditions,Clouds,dailyrainin,SoftwareType,DateUTC
2013-01-15 00:01:00,36.1,29.3,22.24,NE,50,2.0,3.0,76,0.00,,---,0.00,VWS V13.01,2013-01-15 08:01:00,
2013-01-15 00:06:00,36.0,29.2,22.24,NE,51,0.0,3.0,76,0.00,,---,0.00,VWS V13.01,2013-01-15 08:06:00,
2013-01-15 00:11:00,36.0,29.2,22.24,NE,52,2.0,3.0,76,0.00,,---,0.00,VWS V13.01,2013-01-15 08:11:00,
2013-01-15 00:16:00,36.0,29.2,22.23,NE,53,1.0,3.0,76,0.00,,---,0.00,VWS V13.01,2013-01-15 08:16:00,
2013-01-15 00:22:00,35.9,29.4,22.23,NE,53,0.0,3.0,77,0.00,,---,0.00,VWS V13.01,2013-01-15 08:22:00,
2013-01-15 00:27:00,35.9,29.4,22.23,ENE,61,1.0,4.0,77,0.00,,---,0.00,VWS V13.01,2013-01-15 08:27:00,
2013-01-15 00:32:00,35.7,29.2,22.23,ENE,61,0.0,2.0,77,0.00,,---,0.00,VWS V13.01,2013-01-15 08:32:00,
2013-01-15 00:37:00,35.8,29.3,22.24,ENE,61,0.0,2.0,77,0.00,,---,0.00,VWS V13.01,2013-01-15 08:37:00,
2013-01-15 00:42:00,35.8,29.3,22.24,ENE,61,0.0,3.0,77,0.00,,---,0.00,VWS V13.01,2013-01-15 08:42:00,
2013-01-15 00:47:00,35.8,29.3,22.24,ENE,62,0.0,3.0,77,0.00,,---,0.00,VWS V13.01,2013-01-15 08:47:00,
2013-01-15 00:52:00,35.7,29.5,22.25,ENE,62,2.0,3.0,78,0.00,,---,0.00,VWS V13.01,2013-01-15 08:52:00,
2013-01-15 00:57:00,35.7,29.5,22.25,ENE,62,0.0,3.0,78,0.00,,---,0.00,VWS V13.01,2013-01-15 08:57:00,
2013-01-15 01:02:00,35.7,29.5,22.25,ENE,66,0.0,3.0,78,0.00,,---,0.00,VWS V13.01,2013-01-15 09:02:00,
2013-01-15 01:07:00,35.8,29.6,22.25,ENE,68,1.0,4.0,78,0.00,,---,0.00,VWS V13.01,2013-01-15 09:07:00,
2013-01-15 01:12:00,35.8,29.6,22.25,ENE,70,0.0,4.0,78,0.00,,---,0.00,VWS V13.01,2013-01-15 09:12:00,
2013-01-15 01:17:00,35.8,29.6,22.25,ENE,71,3.0,4.0,78,0.00,,---,0.00,VWS V13.01,2013-01-15 09:17:00,
2013-01-15 01:22:00,35.8,29.6,22.25,ENE,72,0.0,4.0,78,0.00,,---,0.00,VWS V13.01,2013-01-15 09:22:00,
2013-01-15 01:27:00,35.8,29.6,22.26,ENE,72,0.0,4.0,78,0.00,,---,0.00,VWS V13.01,2013-01-15 09:27:00,
2013-01-15 01:32:00,35.8,29.6,22.26,ENE,72,2.0,2.0,78,0.00,,---,0.00,VWS V13.01,2013-01-15 09:32:00,
2013-01-15 01:37:00,35.7,29.8,22.26,ENE,72,0.0,3.0,79,0.00,,---,0.00,VWS V13.01,2013-01-15 09:37:00,
2013-01-15 01:42:00,35.8,29.9,22.26,ENE,72,1.0,3.0,79,0.00,,---,0.00,VWS V13.01,2013-01-15 09:42:00,
2013-01-15 01:47:00,35.7,29.8,22.26,ENE,72,0.0,3.0,79,0.00,,---,0.00,VWS V13.01,2013-01-15 09:47:00,
2013-01-15 01:52:00,35.7,29.8,22.26,ENE,73,2.0,4.0,79,0.00,,---,0.00,VWS V13.01,2013-01-15 09:52:00,
2013-01-15 01:57:00,35.7,29.8,22.26,ENE,73,1.0,4.0,79,0.00,,---,0.00,VWS V13.01,2013-01-15 09:57:00,
2013-01-15 02:02:00,35.6,30.0,22.26,ENE,74,0.0,1.0,80,0.00,,---,0.00,VWS V13.01,2013-01-15 10:02:00,
2013-01-15 02:07:00,35.6,29.7,22.27,ENE,74,0.0,2.0,79,0.00,,---,0.00,VWS V13.01,2013-01-15 10:07:00,
2013-01-15 02:12:00,35.6,30.0,22.27,ENE,74,0.0,2.0,80,0.00,,---,0.00,VWS V13.01,2013-01-15 10:12:00,
2013-01-15 02:17:00,35.5,30.0,22.27,ENE,74,1.0,3.0,80,0.00,,---,0.00,VWS V13.01,2013-01-15 10:17:00,
2013-01-15 02:22:00,35.4,29.9,22.27,ENE,74,1.0,3.0,80,0.00,,---,0.00,VWS V13.01,2013-01-15 10:22:00,
2013-01-15 02:27:00,35.3,29.8,22.27,ENE,74,1.0,3.0,80,0.00,,---,0.00,VWS V13.01,2013-01-15 10:27:00,
2013-01-15 02:32:00,35.3,29.8,22.27,ENE,74,0.0,1.0,80,0.00,,---,0.00,VWS V13.01,2013-01-15 10:32:00,
2013-01-15 02:37:00,35.1,29.9,22.27,ENE,74,0.0,2.0,81,0.00,,---,0.00,VWS V13.01,2013-01-15 10:37:00,
2013-01-15 02:42:00,35.0,29.8,22.27,ENE,74,0.0,2.0,81,0.00,,---,0.00,VWS V13.01,2013-01-15 10:42:00,
2013-01-15 02:47:00,34.9,29.7,22.27,ENE,74,0.0,2.0,81,0.00,,---,0.00,VWS V13.01,2013-01-15 10:47:00,
2013-01-15 02:52:00,34.7,29.5,22.28,ENE,74,0.0,2.0,81,0.00,,---,0.00,VWS V13.01,2013-01-15 10:52:00,
2013-01-15 02:57:00,34.7,29.5,22.28,ENE,75,0.0,2.0,81,0.00,,---,0.00,VWS V13.01,2013-01-15 10:57:00,
2013-01-15 03:02:00,34.7,29.5,22.27,ENE,74,1.0,2.0,81,0.00,,---,0.00,VWS V13.01,2013-01-15 11:02:00,
2013-01-15 03:07:00,34.7,29.5,22.28,ENE,74,0.0,2.0,81,0.00,,---,0.00,VWS V13.01,2013-01-15 11:07:00,
2013-01-15 03:12:00,34.6,29.4,22.28,ENE,74,0.0,2.0,81,0.00,,---,0.00,VWS V13.01,2013-01-15 11:12:00,
2013-01-15 03:17:00,34.5,29.3,22.28,ENE,74,0.0,2.0,81,0.00,,---,0.00,VWS V13.01,2013-01-15 11:17:00,
2013-01-15 03:22:00,34.3,29.1,22.28,ENE,74,0.0,2.0,81,0.00,,---,0.00,VWS V13.01,2013-01-15 11:22:00,
2013-01-15 03:27:00,34.3,29.1,22.28,ENE,74,2.0,2.0,81,0.00,,---,0.00,VWS V13.01,2013-01-15 11:27:00,
2013-01-15 03:32:00,34.2,29.0,22.28,ENE,75,1.0,2.0,81,0.00,,---,0.00,VWS V13.01,2013-01-15 11:32:00,
2013-01-15 03:37:00,34.3,29.1,22.28,ENE,74,0.0,2.0,81,0.00,,---,0.00,VWS V13.01,2013-01-15 11:37:00,
2013-01-15 03:42:00,34.2,29.0,22.28,ENE,74,0.0,2.0,81,0.00,,---,0.00,VWS V13.01,2013-01-15 11:42:00,
2013-01-15 03:47:00,34.2,29.0,22.28,ENE,75,0.0,2.0,81,0.00,,---,0.00,VWS V13.01,2013-01-15 11:47:00,
2013-01-15 03:52:00,34.0,29.1,22.28,ENE,74,0.0,2.0,82,0.00,,---,0.00,VWS V13.01,2013-01-15 11:52:00,
2013-01-15 03:57:00,33.9,29.0,22.28,ENE,74,0.0,2.0,82,0.00,,---,0.00,VWS V13.01,2013-01-15 11:57:00,
2013-01-15 04:02:00,33.9,29.0,22.28,ENE,74,0.0,1.0,82,0.00,,---,0.00,VWS V13.01,2013-01-15 12:02:00,
2013-01-15 04:07:00,33.8,28.9,22.29,ENE,74,0.0,1.0,82,0.00,,---,0.00,VWS V13.01,2013-01-15 12:07:00,
2013-01-15 04:12:00,33.7,28.8,22.29,ENE,74,0.0,2.0,82,0.00,,---,0.00,VWS V13.01,2013-01-15 12:12:00,
2013-01-15 04:17:00,33.7,28.8,22.28,ENE,74,0.0,2.0,82,0.00,,---,0.00,VWS V13.01,2013-01-15 12:17:00,
2013-01-15 04:22:00,33.6,28.7,22.29,ENE,74,0.0,2.0,82,0.00,,---,0.00,VWS V13.01,2013-01-15 12:22:00,
2013-01-15 04:27:00,33.6,28.7,22.29,ENE,74,0.0,2.0,82,0.00,,---,0.00,VWS V13.01,2013-01-15 12:27:00,
2013-01-15 04:32:00,33.5,28.9,22.29,ENE,74,0.0,2.0,83,0.00,,---,0.00,VWS V13.01,2013-01-15 12:32:00,
2013-01-15 04:37:00,33.5,28.9,22.28,ENE,74,1.0,3.0,83,0.00,,---,0.00,VWS V13.01,2013-01-15 12:37:00,
2013-01-15 04:42:00,33.4,28.5,22.28,ENE,74,0.0,3.0,82,0.00,,---,0.00,VWS V13.01,2013-01-15 12:42:00,
2013-01-15 04:47:00,33.3,28.7,22.28,ENE,75,0.0,3.0,83,0.00,,---,0.00,VWS V13.01,2013-01-15 12:47:00,
2013-01-15 04:52:00,33.3,28.7,22.29,ENE,74,0.0,3.0,83,0.00,,---,0.00,VWS V13.01,2013-01-15 12:52:00,
2013-01-15 04:57:00,33.2,28.6,22.28,ENE,74,1.0,3.0,83,0.00,,---,0.00,VWS V13.01,2013-01-15 12:57:00,
2013-01-15 05:02:00,33.2,28.6,22.29,ENE,74,0.0,1.0,83,0.00,,---,0.00,VWS V13.01,2013-01-15 13:02:00,
2013-01-15 05:07:00,33.2,28.6,22.29,ENE,74,1.0,2.0,83,0.00,,---,0.00,VWS V13.01,2013-01-15 13:07:00,
2013-01-15 05:12:00,33.2,28.3,22.29,ENE,75,1.0,4.0,82,0.00,,---,0.00,VWS V13.01,2013-01-15 13:12:00,
2013-01-15 05:17:00,33.1,28.5,22.29,ENE,75,1.0,4.0,83,0.00,,---,0.00,VWS V13.01,2013-01-15 13:17:00,
2013-01-15 05:22:00,33.2,28.6,22.29,ENE,75,1.0,4.0,83,0.00,,---,0.00,VWS V13.01,2013-01-15 13:22:00,
2013-01-15 05:27:00,33.1,28.5,22.29,ENE,75,0.0,4.0,83,0.00,,---,0.00,VWS V13.01,2013-01-15 13:27:00,
2013-01-15 05:32:00,32.9,28.3,22.29,ENE,75,0.0,1.0,83,0.00,,---,0.00,VWS V13.01,2013-01-15 13:32:00,
2013-01-15 05:37:00,32.6,28.3,22.29,ENE,75,0.0,1.0,84,0.00,,---,0.00,VWS V13.01,2013-01-15 13:37:00,
2013-01-15 05:42:00,32.5,28.2,22.29,ENE,75,0.0,1.0,84,0.00,,---,0.00,VWS V13.01,2013-01-15 13:42:00,
2013-01-15 05:48:00,32.4,28.1,22.29,ENE,75,0.0,1.0,84,0.00,,---,0.00,VWS V13.01,2013-01-15 13:48:00,
2013-01-15 05:53:00,32.5,28.2,22.29,ENE,75,0.0,1.0,84,0.00,,---,0.00,VWS V13.01,2013-01-15 13:53:00,
2013-01-15 05:58:00,32.5,28.5,22.29,ENE,75,1.0,2.0,85,0.00,,---,0.00,VWS V13.01,2013-01-15 13:58:00,
2013-01-15 06:03:00,32.5,28.2,22.30,ENE,75,0.0,2.0,84,0.00,,---,0.00,VWS V13.01,2013-01-15 14:03:00,
2013-01-15 06:08:00,32.4,28.1,22.30,ENE,75,0.0,2.0,84,0.00,,---,0.00,VWS V13.01,2013-01-15 14:08:00,
2013-01-15 06:13:00,32.2,28.2,22.29,ENE,75,0.0,2.0,85,0.00,,---,0.00,VWS V13.01,2013-01-15 14:13:00,
2013-01-15 06:18:00,32.1,27.8,22.30,ENE,75,0.0,2.0,84,0.00,,---,0.00,VWS V13.01,2013-01-15 14:18:00,
2013-01-15 06:23:00,32.1,28.1,22.30,ENE,75,0.0,2.0,85,0.00,,---,0.00,VWS V13.01,2013-01-15 14:23:00,
2013-01-15 06:28:00,32.0,27.7,22.30,ENE,75,0.0,2.0,84,0.00,,---,0.00,VWS V13.01,2013-01-15 14:28:00,
2013-01-15 06:33:00,31.9,27.6,22.31,ENE,75,0.0,0.0,84,0.00,,---,0.00,VWS V13.01,2013-01-15 14:33:00,
2013-01-15 06:38:00,31.7,27.7,22.31,ENE,75,0.0,0.0,85,0.00,,---,0.00,VWS V13.01,2013-01-15 14:38:00,
2013-01-15 06:43:00,31.6,27.6,22.31,ENE,75,0.0,0.0,85,0.00,,---,0.00,VWS V13.01,2013-01-15 14:43:00,
2013-01-15 06:48:00,31.5,27.5,22.31,ENE,75,0.0,0.0,85,0.00,,---,0.00,VWS V13.01,2013-01-15 14:48:00,
2013-01-15 06:53:00,31.3,27.3,22.31,ENE,75,0.0,0.0,85,0.00,,---,0.00,VWS V13.01,2013-01-15 14:53:00,
2013-01-15 06:58:00,31.2,27.2,22.31,ENE,75,0.0,0.0,85,0.00,,---,0.00,VWS V13.01,2013-01-15 14:58:00,
2013-01-15 07:03:00,31.1,27.4,22.31,ENE,75,0.0,0.0,86,0.00,,---,0.00,VWS V13.01,2013-01-15 15:03:00,
2013-01-15 07:08:00,31.1,27.4,22.31,ENE,75,0.0,0.0,86,0.00,,---,0.00,VWS V13.01,2013-01-15 15:08:00,
2013-01-15 07:13:00,31.0,27.0,22.32,ENE,75,0.0,0.0,85,0.00,,---,0.00,VWS V13.01,2013-01-15 15:13:00,
2013-01-15 07:18:00,31.0,27.3,22.32,ENE,75,0.0,0.0,86,0.00,,---,0.00,VWS V13.01,2013-01-15 15:18:00,
2013-01-15 07:23:00,31.0,27.3,22.32,ENE,75,0.0,0.0,86,0.00,,---,0.00,VWS V13.01,2013-01-15 15:23:00,
2013-01-15 07:28:00,30.9,27.2,22.32,ENE,75,0.0,0.0,86,0.00,,---,0.00,VWS V13.01,2013-01-15 15:28:00,
2013-01-15 07:33:00,31.0,27.3,22.32,ENE,75,0.0,0.0,86,0.00,,---,0.00,VWS V13.01,2013-01-15 15:33:00,
2013-01-15 07:38:00,31.0,27.3,22.33,ENE,75,0.0,0.0,86,0.00,,---,0.00,VWS V13.01,2013-01-15 15:38:00,
2013-01-15 07:43:00,31.0,27.3,22.33,ENE,75,0.0,0.0,86,0.00,,---,0.00,VWS V13.01,2013-01-15 15:43:00,
2013-01-15 07:48:00,31.1,27.4,22.33,ENE,75,0.0,0.0,86,0.00,,---,0.00,VWS V13.01,2013-01-15 15:48:00,
2013-01-15 07:53:00,31.2,27.8,22.33,ENE,75,0.0,0.0,87,0.00,,---,0.00,VWS V13.01,2013-01-15 15:53:00,
2013-01-15 07:58:00,31.4,28.0,22.33,ENE,75,0.0,0.0,87,0.00,,---,0.00,VWS V13.01,2013-01-15 15:58:00,
2013-01-15 08:03:00,31.7,28.3,22.33,ENE,75,0.0,0.0,87,0.00,,---,0.00,VWS V13.01,2013-01-15 16:03:00,
2013-01-15 08:08:00,31.9,28.2,22.34,ENE,75,0.0,0.0,86,0.00,,---,0.00,VWS V13.01,2013-01-15 16:08:00,
2013-01-15 08:13:00,32.1,28.4,22.34,ENE,75,0.0,0.0,86,0.00,,---,0.00,VWS V13.01,2013-01-15 16:13:00,
2013-01-15 08:18:00,32.4,28.4,22.35,ENE,75,0.0,0.0,85,0.00,,---,0.00,VWS V13.01,2013-01-15 16:18:00,
2013-01-15 08:23:00,32.6,28.6,22.34,ENE,75,0.0,0.0,85,0.00,,---,0.00,VWS V13.01,2013-01-15 16:23:00,
2013-01-15 08:28:00,33.0,29.0,22.34,ENE,75,0.0,0.0,85,0.00,,---,0.00,VWS V13.01,2013-01-15 16:28:00,
2013-01-15 08:33:00,33.3,29.3,22.34,ENE,75,0.0,0.0,85,0.00,,---,0.00,VWS V13.01,2013-01-15 16:33:00,
2013-01-15 08:38:00,33.5,29.5,22.34,ENE,75,0.0,0.0,85,0.00,,---,0.00,VWS V13.01,2013-01-15 16:38:00,
2013-01-15 08:43:00,33.8,29.8,22.34,ENE,75,0.0,0.0,85,0.00,,---,0.00,VWS V13.01,2013-01-15 16:43:00,
2013-01-15 08:48:00,34.1,30.1,22.35,ENE,75,0.0,0.0,85,0.00,,---,0.00,VWS V13.01,2013-01-15 16:48:00,
2013-01-15 08:53:00,34.3,30.0,22.35,ENE,75,0.0,0.0,84,0.00,,---,0.00,VWS V13.01,2013-01-15 16:53:00,
2013-01-15 08:58:00,34.5,30.2,22.35,ENE,75,0.0,0.0,84,0.00,,---,0.00,VWS V13.01,2013-01-15 16:58:00,
2013-01-15 09:03:00,34.7,30.1,22.35,ENE,75,0.0,0.0,83,0.00,,---,0.00,VWS V13.01,2013-01-15 17:03:00,
2013-01-15 09:08:00,35.1,30.5,22.35,ENE,75,0.0,0.0,83,0.00,,---,0.00,VWS V13.01,2013-01-15 17:08:00,
2013-01-15 09:13:00,35.4,30.8,22.35,ENE,75,0.0,0.0,83,0.00,,---,0.00,VWS V13.01,2013-01-15 17:13:00,
2013-01-15 09:18:00,35.7,30.8,22.35,ENE,75,0.0,0.0,82,0.00,,---,0.00,VWS V13.01,2013-01-15 17:18:00,
2013-01-15 09:23:00,36.2,31.2,22.35,ENE,75,0.0,0.0,82,0.00,,---,0.00,VWS V13.01,2013-01-15 17:23:00,
2013-01-15 09:28:00,36.7,31.4,22.34,ENE,75,0.0,0.0,81,0.00,,---,0.00,VWS V13.01,2013-01-15 17:28:00,
2013-01-15 09:33:00,37.2,31.6,22.34,ENE,75,0.0,0.0,80,0.00,,---,0.00,VWS V13.01,2013-01-15 17:33:00,
2013-01-15 09:38:00,37.7,31.8,22.34,ENE,75,0.0,0.0,79,0.00,,---,0.00,VWS V13.01,2013-01-15 17:38:00,
2013-01-15 09:43:00,38.2,32.0,22.34,ENE,75,0.0,0.0,78,0.00,,---,0.00,VWS V13.01,2013-01-15 17:43:00,
2013-01-15 09:48:00,38.8,32.9,22.34,ENE,75,0.0,0.0,79,0.00,,---,0.00,VWS V13.01,2013-01-15 17:48:00,
2013-01-15 09:53:00,39.5,33.5,22.34,ENE,75,0.0,0.0,79,0.00,,---,0.00,VWS V13.01,2013-01-15 17:53:00,
2013-01-15 09:58:00,40.2,34.2,22.34,ENE,75,0.0,0.0,79,0.00,,---,0.00,VWS V13.01,2013-01-15 17:58:00,
2013-01-15 10:03:00,40.6,33.6,22.34,ENE,75,0.0,0.0,76,0.00,,---,0.00,VWS V13.01,2013-01-15 18:03:00,
2013-01-15 10:08:00,40.9,33.9,22.33,ENE,75,0.0,0.0,76,0.00,,---,0.00,VWS V13.01,2013-01-15 18:08:00,
2013-01-15 10:13:00,41.5,34.8,22.34,ENE,75,0.0,0.0,77,0.00,,---,0.00,VWS V13.01,2013-01-15 18:13:00,
2013-01-15 10:18:00,41.9,34.9,22.34,ENE,75,0.0,0.0,76,0.00,,---,0.00,VWS V13.01,2013-01-15 18:18:00,
2013-01-15 10:23:00,42.2,34.9,22.33,ENE,75,0.0,0.0,75,0.00,,---,0.00,VWS V13.01,2013-01-15 18:23:00,
2013-01-15 10:28:00,42.4,34.7,22.33,ENE,72,0.0,0.0,74,0.00,,---,0.00,VWS V13.01,2013-01-15 18:28:00,
2013-01-15 10:33:00,42.7,35.3,22.33,ENE,72,0.0,0.0,75,0.00,,---,0.00,VWS V13.01,2013-01-15 18:33:00,
2013-01-15 10:38:00,43.1,35.4,22.33,ENE,72,0.0,0.0,74,0.00,,---,0.00,VWS V13.01,2013-01-15 18:38:00,
2013-01-15 10:43:00,43.4,35.7,22.33,ENE,72,0.0,0.0,74,0.00,,---,0.00,VWS V13.01,2013-01-15 18:43:00,
2013-01-15 10:48:00,44.0,36.3,22.32,ENE,72,0.0,0.0,74,0.00,,---,0.00,VWS V13.01,2013-01-15 18:48:00,
2013-01-15 10:53:00,44.5,36.7,22.32,ENE,73,0.0,0.0,74,0.00,,---,0.00,VWS V13.01,2013-01-15 18:53:00,
2013-01-15 10:58:00,44.9,36.4,22.32,ENE,73,0.0,0.0,72,0.00,,---,0.00,VWS V13.01,2013-01-15 18:58:00,
2013-01-15 11:03:00,45.1,36.6,22.32,ENE,73,0.0,0.0,72,0.00,,---,0.00,VWS V13.01,2013-01-15 19:03:00,
2013-01-15 11:08:00,45.4,36.6,22.32,ENE,73,0.0,0.0,71,0.00,,---,0.00,VWS V13.01,2013-01-15 19:08:00,
2013-01-15 11:13:00,45.6,36.8,22.31,ENE,73,0.0,0.0,71,0.00,,---,0.00,VWS V13.01,2013-01-15 19:13:00,
2013-01-15 11:18:00,46.0,36.4,22.31,ENE,66,0.0,0.0,69,0.00,,---,0.00,VWS V13.01,2013-01-15 19:18:00,
2013-01-15 11:23:00,45.8,36.2,22.31,ENE,66,0.0,0.0,69,0.00,,---,0.00,VWS V13.01,2013-01-15 19:23:00,
2013-01-15 11:28:00,45.6,35.7,22.31,ENE,66,0.0,0.0,68,0.00,,---,0.00,VWS V13.01,2013-01-15 19:28:00,
2013-01-15 11:33:00,45.8,36.6,22.31,ENE,66,0.0,0.0,70,0.00,,---,0.00,VWS V13.01,2013-01-15 19:33:00,
2013-01-15 11:38:00,46.2,36.6,22.30,ENE,65,0.0,0.0,69,0.00,,---,0.00,VWS V13.01,2013-01-15 19:38:00,
2013-01-15 11:43:00,46.5,36.9,22.30,ENE,63,0.0,0.0,69,0.00,,---,0.00,VWS V13.01,2013-01-15 19:43:00,
2013-01-15 11:48:00,46.7,37.1,22.30,ENE,60,0.0,0.0,69,0.00,,---,0.00,VWS V13.01,2013-01-15 19:48:00,
2013-01-15 11:53:00,46.7,37.1,22.30,ENE,60,0.0,0.0,69,0.00,,---,0.00,VWS V13.01,2013-01-15 19:53:00,
2013-01-15 11:58:00,47.0,37.4,22.30,ENE,60,0.0,0.0,69,0.00,,---,0.00,VWS V13.01,2013-01-15 19:58:00,
2013-01-15 12:03:00,47.2,37.2,22.30,ENE,60,0.0,0.0,68,0.00,,---,0.00,VWS V13.01,2013-01-15 20:03:00,
2013-01-15 12:08:00,47.1,37.1,22.30,ENE,60,0.0,0.0,68,0.00,,---,0.00,VWS V13.01,2013-01-15 20:08:00,
2013-01-15 12:13:00,47.0,36.6,22.29,ENE,60,0.0,0.0,67,0.00,,---,0.00,VWS V13.01,2013-01-15 20:13:00,
2013-01-15 12:18:00,47.6,37.6,22.29,ENE,60,0.0,0.0,68,0.00,,---,0.00,VWS V13.01,2013-01-15 20:18:00,
2013-01-15 12:23:00,47.8,37.0,22.29,ENE,60,0.0,0.0,66,0.00,,---,0.00,VWS V13.01,2013-01-15 20:23:00,
2013-01-15 12:28:00,48.0,37.6,22.28,ENE,60,0.0,0.0,67,0.00,,---,0.00,VWS V13.01,2013-01-15 20:28:00,
2013-01-15 12:33:00,48.2,37.4,22.27,East,82,0.0,0.0,66,0.00,,---,0.00,VWS V13.01,2013-01-15 20:33:00,
2013-01-15 12:38:00,49.1,37.9,22.27,ESE,110,0.0,0.0,65,0.00,,---,0.00,VWS V13.01,2013-01-15 20:38:00,
2013-01-15 12:44:00,49.3,37.2,22.27,ESE,108,0.0,0.0,63,0.00,,---,0.00,VWS V13.01,2013-01-15 20:44:00,
2013-01-15 12:49:00,49.2,36.8,22.27,ESE,111,0.0,0.0,62,0.00,,---,0.00,VWS V13.01,2013-01-15 20:49:00,
2013-01-15 12:54:00,48.9,36.9,22.26,ESE,110,0.0,0.0,63,0.00,,---,0.00,VWS V13.01,2013-01-15 20:54:00,
2013-01-15 12:59:00,48.8,36.8,22.26,East,93,0.0,0.0,63,0.00,,---,0.00,VWS V13.01,2013-01-15 20:59:00,
2013-01-15 13:04:00,49.2,38.0,22.26,East,92,0.0,0.0,65,0.00,,---,0.00,VWS V13.01,2013-01-15 21:04:00,
2013-01-15 13:09:00,49.8,37.7,22.26,East,92,0.0,0.0,63,0.00,,---,0.00,VWS V13.01,2013-01-15 21:09:00,
2013-01-15 13:14:00,49.7,36.8,22.25,East,92,0.0,0.0,61,0.00,,---,0.00,VWS V13.01,2013-01-15 21:14:00,
2013-01-15 13:19:00,49.9,37.8,22.26,East,92,0.0,0.0,63,0.00,,---,0.00,VWS V13.01,2013-01-15 21:19:00,
2013-01-15 13:24:00,50.3,38.6,22.26,East,93,0.0,0.0,64,0.00,,---,0.00,VWS V13.01,2013-01-15 21:24:00,
2013-01-15 13:29:00,50.8,39.1,22.25,East,93,0.0,0.0,64,0.00,,---,0.00,VWS V13.01,2013-01-15 21:29:00,
2013-01-15 13:34:00,50.9,38.4,22.25,SSE,148,0.0,0.0,62,0.00,,---,0.00,VWS V13.01,2013-01-15 21:34:00,
2013-01-15 13:39:00,51.2,37.8,22.25,SE,138,0.0,0.0,60,0.00,,---,0.00,VWS V13.01,2013-01-15 21:39:00,
2013-01-15 13:44:00,51.3,38.3,22.25,SE,142,0.0,0.0,61,0.00,,---,0.00,VWS V13.01,2013-01-15 21:44:00,
2013-01-15 13:49:00,51.0,36.8,22.25,SE,141,0.0,0.0,58,0.00,,---,0.00,VWS V13.01,2013-01-15 21:49:00,
2013-01-15 13:54:00,51.0,37.6,22.25,South,170,0.0,0.0,60,0.00,,---,0.00,VWS V13.01,2013-01-15 21:54:00,
2013-01-15 13:59:00,51.2,37.4,22.25,SSE,147,0.0,0.0,59,0.00,,---,0.00,VWS V13.01,2013-01-15 21:59:00,
2013-01-15 14:04:00,51.3,37.0,22.25,SE,132,0.0,0.0,58,0.00,,---,0.00,VWS V13.01,2013-01-15 22:04:00,
2013-01-15 14:09:00,51.1,36.8,22.25,SE,143,0.0,0.0,58,0.00,,---,0.00,VWS V13.01,2013-01-15 22:09:00,
2013-01-15 14:14:00,51.3,36.2,22.25,SE,136,0.0,0.0,56,0.00,,---,0.00,VWS V13.01,2013-01-15 22:14:00,
2013-01-15 14:19:00,51.5,36.8,22.25,SE,132,0.0,0.0,57,0.00,,---,0.00,VWS V13.01,2013-01-15 22:19:00,
2013-01-15 14:24:00,51.5,36.3,22.24,SE,132,0.0,0.0,56,0.00,,---,0.00,VWS V13.01,2013-01-15 22:24:00,
2013-01-15 14:29:00,51.6,36.9,22.25,SE,143,0.0,0.0,57,0.00,,---,0.00,VWS V13.01,2013-01-15 22:29:00,
2013-01-15 14:34:00,51.8,37.5,22.24,SE,143,0.0,0.0,58,0.00,,---,0.00,VWS V13.01,2013-01-15 22:34:00,
2013-01-15 14:39:00,51.6,36.9,22.24,SE,138,0.0,0.0,57,0.00,,---,0.00,VWS V13.01,2013-01-15 22:39:00,
2013-01-15 14:44:00,51.7,37.4,22.24,SE,140,0.0,0.0,58,0.00,,---,0.00,VWS V13.01,2013-01-15 22:44:00,
2013-01-15 14:49:00,51.8,37.1,22.24,SE,134,0.0,0.0,57,0.00,,---,0.00,VWS V13.01,2013-01-15 22:49:00,
2013-01-15 14:54:00,52.0,37.7,22.24,SE,132,0.0,0.0,58,0.00,,---,0.00,VWS V13.01,2013-01-15 22:54:00,
2013-01-15 15:00:00,52.0,37.2,22.24,SE,127,0.0,0.0,57,0.00,,---,0.00,VWS V13.01,2013-01-15 23:00:00,
2013-01-15 15:05:00,51.9,37.2,22.24,SE,127,0.0,0.0,57,0.00,,---,0.00,VWS V13.01,2013-01-15 23:05:00,
2013-01-15 15:10:00,51.9,37.2,22.24,SE,126,0.0,0.0,57,0.00,,---,0.00,VWS V13.01,2013-01-15 23:10:00,
2013-01-15 15:15:00,51.8,37.1,22.24,SE,137,0.0,0.0,57,0.00,,---,0.00,VWS V13.01,2013-01-15 23:15:00,
2013-01-15 15:20:00,51.7,37.4,22.24,SE,133,0.0,0.0,58,0.00,,---,0.00,VWS V13.01,2013-01-15 23:20:00,
2013-01-15 15:25:00,51.6,37.8,22.24,SE,133,0.0,0.0,59,0.00,,---,0.00,VWS V13.01,2013-01-15 23:25:00,
2013-01-15 15:30:00,51.4,37.6,22.24,SE,133,0.0,0.0,59,0.00,,---,0.00,VWS V13.01,2013-01-15 23:30:00,
2013-01-15 15:35:00,51.4,37.6,22.24,SE,133,0.0,0.0,59,0.00,,---,0.00,VWS V13.01,2013-01-15 23:35:00,
2013-01-15 15:40:00,51.4,37.6,22.24,SE,134,0.0,0.0,59,0.00,,---,0.00,VWS V13.01,2013-01-15 23:40:00,
2013-01-15 15:45:00,51.5,37.2,22.24,SE,134,0.0,0.0,58,0.00,,---,0.00,VWS V13.01,2013-01-15 23:45:00,
2013-01-15 15:50:00,51.3,37.0,22.24,SSE,149,0.0,0.0,58,0.00,,---,0.00,VWS V13.01,2013-01-15 23:50:00,
2013-01-15 15:55:00,51.2,37.0,22.24,SSE,149,0.0,0.0,58,0.00,,---,0.00,VWS V13.01,2013-01-15 23:55:00,
2013-01-15 16:00:00,50.9,36.7,22.25,SSE,152,0.0,0.0,58,0.00,,---,0.00,VWS V13.01,2013-01-16 00:00:00,
2013-01-15 16:05:00,50.9,37.1,22.25,South,172,0.0,0.0,59,0.00,,---,0.00,VWS V13.01,2013-01-16 00:05:00,
2013-01-15 16:10:00,50.8,37.0,22.25,South,174,0.0,0.0,59,0.00,,---,0.00,VWS V13.01,2013-01-16 00:10:00,
2013-01-15 16:15:00,50.8,37.0,22.25,South,178,0.0,0.0,59,0.00,,---,0.00,VWS V13.01,2013-01-16 00:15:00,
2013-01-15 16:20:00,50.5,37.2,22.25,South,178,0.0,0.0,60,0.00,,---,0.00,VWS V13.01,2013-01-16 00:20:00,
2013-01-15 16:25:00,50.3,37.0,22.25,South,178,0.0,0.0,60,0.00,,---,0.00,VWS V13.01,2013-01-16 00:25:00,
2013-01-15 16:30:00,50.2,36.9,22.25,South,183,0.0,0.0,60,0.00,,---,0.00,VWS V13.01,2013-01-16 00:30:00,
2013-01-15 16:35:00,50.0,36.2,22.25,South,183,0.0,0.0,59,0.00,,---,0.00,VWS V13.01,2013-01-16 00:35:00,
2013-01-15 16:40:00,49.5,35.8,22.25,South,183,0.0,0.0,59,0.00,,---,0.00,VWS V13.01,2013-01-16 00:40:00,
2013-01-15 16:45:00,49.2,35.9,22.26,South,183,0.0,0.0,60,0.00,,---,0.00,VWS V13.01,2013-01-16 00:45:00,
2013-01-15 16:50:00,49.1,36.2,22.25,South,183,0.0,0.0,61,0.00,,---,0.00,VWS V13.01,2013-01-16 00:50:00,
2013-01-15 16:55:00,48.9,36.1,22.26,South,183,0.0,0.0,61,0.00,,---,0.00,VWS V13.01,2013-01-16 00:55:00,
2013-01-15 17:00:00,48.8,36.0,22.25,South,183,0.0,0.0,61,0.00,,---,0.00,VWS V13.01,2013-01-16 01:00:00,
2013-01-15 17:05:00,48.6,35.8,22.25,South,183,0.0,0.0,61,0.00,,---,0.00,VWS V13.01,2013-01-16 01:05:00,
2013-01-15 17:10:00,48.3,36.3,22.25,South,183,0.0,0.0,63,0.00,,---,0.00,VWS V13.01,2013-01-16 01:10:00,
2013-01-15 17:15:00,47.9,35.9,22.25,South,183,0.0,0.0,63,0.00,,---,0.00,VWS V13.01,2013-01-16 01:15:00,
2013-01-15 17:20:00,47.8,35.8,22.25,South,183,0.0,0.0,63,0.00,,---,0.00,VWS V13.01,2013-01-16 01:20:00,
2013-01-15 17:25:00,47.6,35.6,22.25,South,183,0.0,0.0,63,0.00,,---,0.00,VWS V13.01,2013-01-16 01:25:00,
2013-01-15 17:30:00,47.4,35.5,22.25,South,183,0.0,0.0,63,0.00,,---,0.00,VWS V13.01,2013-01-16 01:30:00,
2013-01-15 17:35:00,47.0,35.9,22.26,South,183,0.0,0.0,65,0.00,,---,0.00,VWS V13.01,2013-01-16 01:35:00,
2013-01-15 17:40:00,46.4,35.7,22.25,South,183,0.0,0.0,66,0.00,,---,0.00,VWS V13.01,2013-01-16 01:40:00,
2013-01-15 17:45:00,46.0,35.7,22.26,South,183,0.0,0.0,67,0.00,,---,0.00,VWS V13.01,2013-01-16 01:45:00,
2013-01-15 17:50:00,45.9,35.2,22.26,South,183,0.0,0.0,66,0.00,,---,0.00,VWS V13.01,2013-01-16 01:50:00,
2013-01-15 17:55:00,45.4,35.5,22.26,South,183,0.0,0.0,68,0.00,,---,0.00,VWS V13.01,2013-01-16 01:55:00,
2013-01-15 18:00:00,44.6,34.7,22.26,South,183,0.0,0.0,68,0.00,,---,0.00,VWS V13.01,2013-01-16 02:00:00,
2013-01-15 18:05:00,44.1,34.2,22.26,South,183,0.0,0.0,68,0.00,,---,0.00,VWS V13.01,2013-01-16 02:05:00,
2013-01-15 18:10:00,43.6,34.1,22.26,South,183,0.0,0.0,69,0.00,,---,0.00,VWS V13.01,2013-01-16 02:10:00,
2013-01-15 18:15:00,43.4,33.9,22.26,South,183,0.0,0.0,69,0.00,,---,0.00,VWS V13.01,2013-01-16 02:15:00,
2013-01-15 18:20:00,43.0,33.9,22.26,South,183,0.0,0.0,70,0.00,,---,0.00,VWS V13.01,2013-01-16 02:20:00,
2013-01-15 18:25:00,42.7,33.6,22.26,South,183,0.0,0.0,70,0.00,,---,0.00,VWS V13.01,2013-01-16 02:25:00,
2013-01-15 18:30:00,42.4,33.3,22.26,South,183,0.0,0.0,70,0.00,,---,0.00,VWS V13.01,2013-01-16 02:30:00,
2013-01-15 18:35:00,42.2,33.5,22.26,South,183,0.0,0.0,71,0.00,,---,0.00,VWS V13.01,2013-01-16 02:35:00,
2013-01-15 18:40:00,41.9,33.5,22.26,South,183,0.0,0.0,72,0.00,,---,0.00,VWS V13.01,2013-01-16 02:40:00,
2013-01-15 18:45:00,41.7,33.3,22.26,South,183,0.0,0.0,72,0.00,,---,0.00,VWS V13.01,2013-01-16 02:45:00,
2013-01-15 18:50:00,41.6,33.6,22.26,South,183,0.0,0.0,73,0.00,,---,0.00,VWS V13.01,2013-01-16 02:50:00,
2013-01-15 18:55:00,41.6,33.9,22.26,South,183,0.0,0.0,74,0.00,,---,0.00,VWS V13.01,2013-01-16 02:55:00,
2013-01-15 19:00:00,41.4,33.4,22.26,South,183,0.0,0.0,73,0.00,,---,0.00,VWS V13.01,2013-01-16 03:00:00,
2013-01-15 19:05:00,41.2,33.2,22.26,South,183,0.0,0.0,73,0.00,,---,0.00,VWS V13.01,2013-01-16 03:05:00,
2013-01-15 19:10:00,40.8,33.2,22.27,South,183,0.0,0.0,74,0.00,,---,0.00,VWS V13.01,2013-01-16 03:10:00,
2013-01-15 19:15:00,40.8,33.5,22.26,South,183,0.0,0.0,75,0.00,,---,0.00,VWS V13.01,2013-01-16 03:15:00,
2013-01-15 19:20:00,40.5,32.9,22.27,South,183,0.0,0.0,74,0.00,,---,0.00,VWS V13.01,2013-01-16 03:20:00,
2013-01-15 19:25:00,40.3,33.3,22.26,South,183,0.0,0.0,76,0.00,,---,0.00,VWS V13.01,2013-01-16 03:25:00,
2013-01-15 19:30:00,40.0,32.7,22.26,South,183,0.0,0.0,75,0.00,,---,0.00,VWS V13.01,2013-01-16 03:30:00,
2013-01-15 19:35:00,39.9,33.0,22.27,South,183,0.0,0.0,76,0.00,,---,0.00,VWS V13.01,2013-01-16 03:35:00,
2013-01-15 19:40:00,39.9,33.3,22.27,South,183,0.0,0.0,77,0.00,,---,0.00,VWS V13.01,2013-01-16 03:40:00,
2013-01-15 19:45:00,39.7,33.1,22.27,South,183,0.0,0.0,77,0.00,,---,0.00,VWS V13.01,2013-01-16 03:45:00,
2013-01-15 19:50:00,39.5,32.6,22.27,South,183,0.0,0.0,76,0.00,,---,0.00,VWS V13.01,2013-01-16 03:50:00,
2013-01-15 19:55:00,39.2,32.6,22.26,South,183,0.0,0.0,77,0.00,,---,0.00,VWS V13.01,2013-01-16 03:55:00,
2013-01-15 20:00:00,39.3,33.0,22.26,South,183,0.0,0.0,78,0.00,,---,0.00,VWS V13.01,2013-01-16 04:00:00,
2013-01-15 20:05:00,39.1,32.5,22.27,South,183,0.0,0.0,77,0.00,,---,0.00,VWS V13.01,2013-01-16 04:05:00,
2013-01-15 20:10:00,39.1,32.8,22.27,South,183,0.0,0.0,78,0.00,,---,0.00,VWS V13.01,2013-01-16 04:10:00,
2013-01-15 20:15:00,38.8,32.5,22.26,South,183,0.0,0.0,78,0.00,,---,0.00,VWS V13.01,2013-01-16 04:15:00,
2013-01-15 20:20:00,38.5,32.6,22.27,South,183,0.0,0.0,79,0.00,,---,0.00,VWS V13.01,2013-01-16 04:20:00,
2013-01-15 20:25:00,38.4,32.5,22.27,South,183,0.0,0.0,79,0.00,,---,0.00,VWS V13.01,2013-01-16 04:25:00,
2013-01-15 20:30:00,38.3,32.4,22.27,South,183,0.0,0.0,79,0.00,,---,0.00,VWS V13.01,2013-01-16 04:30:00,
2013-01-15 20:35:00,38.2,32.3,22.27,South,183,0.0,0.0,79,0.00,,---,0.00,VWS V13.01,2013-01-16 04:35:00,
2013-01-15 20:40:00,38.1,32.5,22.27,South,183,0.0,0.0,80,0.00,,---,0.00,VWS V13.01,2013-01-16 04:40:00,
2013-01-15 20:45:00,38.1,32.2,22.27,South,183,0.0,0.0,79,0.00,,---,0.00,VWS V13.01,2013-01-16 04:45:00,
2013-01-15 20:50:00,38.0,32.4,22.28,South,183,0.0,0.0,80,0.00,,---,0.00,VWS V13.01,2013-01-16 04:50:00,
2013-01-15 20:55:00,37.9,32.6,22.27,South,183,0.0,0.0,81,0.00,,---,0.00,VWS V13.01,2013-01-16 04:55:00,
2013-01-15 21:00:00,37.8,32.5,22.27,South,183,0.0,0.0,81,0.00,,---,0.00,VWS V13.01,2013-01-16 05:00:00,
2013-01-15 21:02:00,37.7,32.4,22.27,South,183,0.0,0.0,81,0.00,,---,0.00,VWS V13.01,2013-01-16 05:02:00,
2013-01-15 21:04:00,37.7,32.4,22.27,South,183,0.0,0.0,81,0.00,,---,0.00,VWS V13.01,2013-01-16 05:04:00,
2013-01-15 21:06:00,37.6,32.3,22.27,South,183,0.0,0.0,81,0.00,,---,0.00,VWS V13.01,2013-01-16 05:06:00,
2013-01-15 21:11:00,37.5,32.5,22.26,South,183,0.0,0.0,82,0.00,,---,0.00,VWS V13.01,2013-01-16 05:11:00,
2013-01-15 21:16:00,37.5,32.2,22.26,South,183,0.0,0.0,81,0.00,,---,0.00,VWS V13.01,2013-01-16 05:16:00,
2013-01-15 21:21:00,37.5,32.5,22.27,South,183,0.0,0.0,82,0.00,,---,0.00,VWS V13.01,2013-01-16 05:21:00,
2013-01-15 21:26:00,37.4,32.1,22.27,South,183,0.0,0.0,81,0.00,,---,0.00,VWS V13.01,2013-01-16 05:26:00,
2013-01-15 21:31:00,37.4,32.4,22.26,South,183,0.0,0.0,82,0.00,,---,0.00,VWS V13.01,2013-01-16 05:31:00,
2013-01-15 21:36:00,37.6,32.6,22.26,South,183,0.0,0.0,82,0.00,,---,0.00,VWS V13.01,2013-01-16 05:36:00,
2013-01-15 21:41:00,37.5,32.5,22.26,South,183,0.0,0.0,82,0.00,,---,0.00,VWS V13.01,2013-01-16 05:41:00,
2013-01-15 21:47:00,37.3,32.3,22.27,South,183,0.0,0.0,82,0.00,,---,0.00,VWS V13.01,2013-01-16 05:47:00,
2013-01-15 21:52:00,37.3,32.3,22.26,South,183,0.0,0.0,82,0.00,,---,0.00,VWS V13.01,2013-01-16 05:52:00,
2013-01-15 21:57:00,37.3,32.0,22.26,South,183,0.0,0.0,81,0.00,,---,0.00,VWS V13.01,2013-01-16 05:57:00,
2013-01-15 22:02:00,37.4,32.4,22.26,South,183,0.0,0.0,82,0.00,,---,0.00,VWS V13.01,2013-01-16 06:02:00,
2013-01-15 22:07:00,37.2,31.9,22.27,South,183,0.0,0.0,81,0.00,,---,0.00,VWS V13.01,2013-01-16 06:07:00,
2013-01-15 22:12:00,37.1,32.1,22.27,South,183,0.0,0.0,82,0.00,,---,0.00,VWS V13.01,2013-01-16 06:12:00,
2013-01-15 22:17:00,37.0,32.0,22.27,South,183,0.0,0.0,82,0.00,,---,0.00,VWS V13.01,2013-01-16 06:17:00,
2013-01-15 22:22:00,36.8,31.8,22.27,South,183,0.0,0.0,82,0.00,,---,0.00,VWS V13.01,2013-01-16 06:22:00,
2013-01-15 22:27:00,36.8,32.1,22.27,South,183,0.0,0.0,83,0.00,,---,0.00,VWS V13.01,2013-01-16 06:27:00,
2013-01-15 22:32:00,36.9,32.2,22.28,South,183,0.0,0.0,83,0.00,,---,0.00,VWS V13.01,2013-01-16 06:32:00,
2013-01-15 22:37:00,36.9,31.9,22.27,South,183,0.0,0.0,82,0.00,,---,0.00,VWS V13.01,2013-01-16 06:37:00,
2013-01-15 22:42:00,36.7,31.7,22.27,South,183,0.0,0.0,82,0.00,,---,0.00,VWS V13.01,2013-01-16 06:42:00,
2013-01-15 22:47:00,36.4,31.4,22.28,South,183,0.0,0.0,82,0.00,,---,0.00,VWS V13.01,2013-01-16 06:47:00,
2013-01-15 22:52:00,36.2,31.2,22.27,South,183,0.0,0.0,82,0.00,,---,0.00,VWS V13.01,2013-01-16 06:52:00,
2013-01-15 22:57:00,36.0,31.0,22.27,South,183,0.0,0.0,82,0.00,,---,0.00,VWS V13.01,2013-01-16 06:57:00,
2013-01-15 23:02:00,35.9,31.2,22.27,South,183,0.0,0.0,83,0.00,,---,0.00,VWS V13.01,2013-01-16 07:02:00,
2013-01-15 23:07:00,35.8,31.1,22.27,South,183,0.0,0.0,83,0.00,,---,0.00,VWS V13.01,2013-01-16 07:07:00,
2013-01-15 23:12:00,35.7,30.8,22.27,South,183,0.0,0.0,82,0.00,,---,0.00,VWS V13.01,2013-01-16 07:12:00,
2013-01-15 23:17:00,35.6,30.7,22.27,South,183,0.0,0.0,82,0.00,,---,0.00,VWS V13.01,2013-01-16 07:17:00,
2013-01-15 23:22:00,35.5,30.6,22.27,South,183,0.0,0.0,82,0.00,,---,0.00,VWS V13.01,2013-01-16 07:22:00,
2013-01-15 23:27:00,35.3,30.7,22.27,South,183,0.0,0.0,83,0.00,,---,0.00,VWS V13.01,2013-01-16 07:27:00,
2013-01-15 23:32:00,35.3,30.7,22.27,South,183,0.0,0.0,83,0.00,,---,0.00,VWS V13.01,2013-01-16 07:32:00,
2013-01-15 23:37:00,35.3,31.0,22.28,South,183,0.0,0.0,84,0.00,,---,0.00,VWS V13.01,2013-01-16 07:37:00,
2013-01-15 23:42:00,35.1,30.8,22.28,South,183,0.0,0.0,84,0.00,,---,0.00,VWS V13.01,2013-01-16 07:42:00,
2013-01-15 23:47:00,35.0,30.4,22.28,South,183,0.0,0.0,83,0.00,,---,0.00,VWS V13.01,2013-01-16 07:47:00,
2013-01-15 23:52:00,35.1,30.8,22.28,South,183,0.0,0.0,84,0.00,,---,0.00,VWS V13.01,2013-01-16 07:52:00,
2013-01-15 23:57:00,35.0,30.7,22.28,South,183,0.0,0.0,84,0.00,,---,0.00,VWS V13.01,2013-01-16 07:57:00,